Вернуться в каталог

JASON 2

АктивенНаукаLEO
NORAD 33105·PAYLOAD·🇫🇷 France

Запущен Jun 20, 2008 с Vandenberg Space Force Base

Loading…

Ближайшие Пролёты (ближайшие 24 часа)

TLE

СвежийSource: Space-Track

Эпоха: Sep 14, 2026, 12:18 UTC

1 33105U 08032A   26257.51311274 -.00000074  00000-0 -47778-4 0  9991
2 33105  66.0380 223.0051 0008036 269.3703 245.8460 12.87697700855203

Отслеживайте JASON 2 в реальном времени с AllMySat

Download on the App Store